Flag for New Zealand Weather past 2 weeks in Wellington, New Zealand

Now
63 °F

Low clouds.


Feels Like: 63 °F
Forecast: 60 / 67 °F
Wind: 21 mph from Northeast

Location: Wellington Airport

Current Time: Dec 19, 2014 at 10:43:51 PM

Latest Report: Dec 19, 2014 at 10:00 PM


Visibility: N/A

Pressure: 30.01 "Hg

Humidity: 88%

Dew point: 59 °F

Location of WellingtonLocation

Historic Weather in Wellington — Graph

°F

Wellington temperature yesterday

Maximum temperature yesterday: 64 °F (at 10:00 AM)
Minimum temperature yesterday: 57 °F (at 1:00 AM)
Average temperature yesterday: 62 °F

Past Weeks' High & Low Weather Summary

 TemperatureHumidityPressure
High73 °F (Dec 17, 2:30 PM)100% (Dec 5, 8:00 AM)30.30 "Hg (Dec 5, 8:00 AM)
Low46 °F (Dec 15, 5:00 AM)43% (Dec 15, 7:00 PM)29.68 "Hg (Dec 12, 4:30 AM)
Average58 °F78%29.98 "Hg
* Reported Dec 4 10:00 PM — Dec 19 10:00 PM, Wellington, Weather by CustomWeather, © 2014

Note: Actual official high and low records may vary slightly from our data, if they occured in-between our weather recording intervals... More about our weather records

Advertising

Wellington weather history for previous 24 hours

 ConditionsComfort  
Time TempWeatherWind HumidityBarometerVisibility
10:00 PM
Dec 19
63 °FLow clouds.21 mph88%30.01 "HgN/A
9:30 PM63 °FLow clouds.20 mph88%30.01 "HgN/A
9:00 PM63 °FLow clouds.21 mph94%29.98 "HgN/A
8:30 PM63 °FLow clouds.23 mph94%29.98 "HgN/A
8:00 PM63 °FPartly sunny.23 mph94%29.98 "HgN/A
7:30 PM64 °FPartly sunny.20 mph88%29.98 "HgN/A
7:00 PM66 °FPartly sunny.25 mph83%29.95 "HgN/A
6:30 PM66 °FPartly sunny.25 mph83%29.95 "HgN/A
6:00 PM68 °FOvercast.24 mph78%29.95 "HgN/A
5:30 PM66 °FPartly sunny.23 mph83%29.95 "HgN/A
4:30 PM66 °FPartly sunny.24 mph88%29.95 "HgN/A
4:00 PM64 °FLow clouds.24 mph94%29.95 "HgN/A
3:30 PM66 °FPartly sunny.23 mph88%29.95 "HgN/A
3:00 PM66 °FLow clouds.24 mph83%29.98 "HgN/A
2:30 PM66 °FLow clouds.21 mph88%29.98 "HgN/A
2:00 PM66 °FLow clouds.21 mph83%29.98 "HgN/A
1:30 PM64 °FLow clouds.23 mph88%29.98 "HgN/A
1:00 PM64 °FLow clouds.22 mph88%29.98 "HgN/A
12:30 PM64 °FOvercast.24 mph88%29.98 "HgN/A
12:00 PM64 °FOvercast.22 mph83%29.98 "HgN/A
11:30 AM64 °FOvercast.21 mph83%29.98 "HgN/A
11:00 AM64 °FOvercast.22 mph83%29.98 "HgN/A
10:30 AM63 °FOvercast.22 mph88%30.01 "HgN/A
10:00 AM63 °FPartly sunny.21 mph83%29.98 "HgN/A
9:30 AM61 °FPartly sunny.21 mph88%29.98 "HgN/A
9:00 AM61 °FOvercast.21 mph88%29.98 "HgN/A
8:30 AM61 °FOvercast.22 mph88%29.98 "HgN/A
8:00 AM61 °FOvercast.22 mph88%29.98 "HgN/A
7:30 AM61 °FLow clouds.21 mph88%29.98 "HgN/A
7:00 AM59 °FPartly sunny.21 mph94%29.95 "HgN/A
6:30 AM59 °FDrizzle. Low clouds.20 mph94%29.95 "HgN/A
6:00 AM59 °FSprinkles. Partly sunny.21 mph94%29.95 "Hg3 mi
5:30 AM59 °FSprinkles. Overcast.21 mph94%29.95 "Hg4 mi
5:00 AM59 °FPassing clouds.20 mph100%29.92 "Hg4 mi
4:30 AM59 °FPassing clouds.20 mph100%29.92 "Hg5 mi
4:00 AM61 °FDrizzle. Mostly cloudy.21 mph94%29.92 "Hg5 mi
3:30 AM61 °FPassing clouds.20 mph94%29.92 "Hg4 mi
3:00 AM61 °FDrizzle. Low clouds.18 mph94%29.92 "Hg4 mi
2:30 AM61 °FDrizzle. Overcast.22 mph94%29.92 "Hg4 mi
2:00 AM61 °FOvercast.21 mph88%29.92 "HgN/A
1:30 AM61 °FLow clouds.23 mph94%29.92 "HgN/A
1:00 AM61 °FLow clouds.23 mph94%29.92 "HgN/A
12:30 AM61 °FDrizzle. Low clouds.22 mph94%29.92 "Hg5 mi
12:00 AM61 °FLow clouds.21 mph94%29.92 "Hg4 mi
11:30 PM
Dec 18
61 °FLow clouds.20 mph94%29.92 "HgN/A
11:00 PM61 °FLow clouds.17 mph94%29.89 "HgN/A
10:30 PM61 °FLow clouds.15 mph94%29.89 "HgN/A
10:00 PM61 °FLow clouds.12 mph94%29.89 "HgN/A
Weather by CustomWeather, © 2014

See weather overviewHow to use our weather pages